Weather History for Sevilla, Spain

Change the Weather History Date:

Sunday, September 30, 2012

  Actual Average Record
Temperature  
Mean Temperature 68 °F -  
Max Temperature 78 °F 76 °F 95 °F (2005)
Min Temperature 59 °F 57 °F 53 °F (2000)
Cooling Degree Days 4    
Growing Degree Days 18 (Base 50)    
Moisture  
Dew Point 58 °F    
Average Humidity 75    
Maximum Humidity 100    
Minimum Humidity 39    
Precipitation  
Precipitation 0.00 in - - ()
Sea Level Pressure  
Sea Level Pressure 30.05 in    
Wind  
Wind Speed 3 mph ()    
Max Wind Speed 10 mph    
Max Gust Speed -    
Visibility 4.1 miles    
Events Fog    
Averages and records for this station are not official NWS values.
T = Trace of Precipitation, MM = Missing Value Source: Averaged Metar Reports

Daily Weather History Graph

Daily Weather History Graph

Search for Another Location

Airport:

Trip Planner

Search our weather history database for the weather conditions in past years. The results will help you decide how hot, cold, wet, or windy it might be!

Date:

Astronomy

Sep. 30, 2012 Rise Set
Actual Time 8:18 AM CEST 8:07 PM CEST
Civil Twilight 7:52 AM CEST 8:33 PM CEST
Nautical Twilight 7:22 AM CEST 9:04 PM CEST
Astronomical Twilight 6:51 AM CEST 9:34 PM CEST
Moon 8:06 PM CEST (9/30) 8:33 AM CEST (9/30)
Length of Visible Light 12h 41m
Length of Day
11h 49m
Full, 100% of the Moon is Illuminated
Sep 30
Full
Oct 8
Last Quarter
Oct 15
New
Oct 22
First Quarter
Oct 29
Full

Hourly Weather History & Observations

Time (CEST) Temp. Dew Point Humidity Pressure Visibility Wind Dir Wind Speed Gust Speed Precip Events Conditions
12:00 AM 68.0 °F 60.8 °F 78% 30.01 in 6.2 mi Calm Calm - N/A   Partly Cloudy
12:30 AM 64.4 °F 62.6 °F 94% 30.04 in - SSE 2.3 mph - N/A   Clear
1:00 AM 64.4 °F 62.6 °F 94% 30.04 in - South 3.5 mph - N/A   Clear
1:30 AM 66.2 °F 62.6 °F 88% 30.04 in 3.7 mi Variable 1.2 mph - N/A   Unknown
2:00 AM 64.4 °F 62.6 °F 94% 30.04 in 4.3 mi ESE 1.2 mph - N/A   Unknown
4:30 AM 62.6 °F 60.8 °F 94% 30.01 in 4.3 mi SSE 2.3 mph - N/A   Unknown
5:00 AM 62.6 °F 60.8 °F 94% 30.01 in 3.7 mi Calm Calm - N/A   Unknown
5:30 AM 62.6 °F 60.8 °F 94% 30.01 in 2.5 mi ESE 2.3 mph - N/A   Mist
6:00 AM 62.6 °F 60.8 °F 94% 30.04 in 1.9 mi NNW 1.2 mph - N/A   Mist
6:30 AM 60.8 °F 60.8 °F 100% 30.04 in 1.9 mi NNE 3.5 mph - N/A Fog Partly Cloudy
7:00 AM 60.8 °F 60.8 °F 100% 30.04 in 1.9 mi Variable 2.3 mph - N/A   Mist
7:30 AM 60.8 °F 59.0 °F 94% 30.04 in 1.9 mi Calm Calm - N/A Fog Mist
8:00 AM 60.8 °F 59.0 °F 94% 30.04 in 1.6 mi North 1.2 mph - N/A Fog Mist
8:30 AM 60.8 °F 59.0 °F 94% 30.04 in 1.9 mi Variable 2.3 mph - N/A   Mist
8:41 AM 60.8 °F 59.0 °F 94% 30.06 in 0.6 mi NNE 4.6 mph - N/A Fog Fog
9:00 AM 59.0 °F 59.0 °F 100% 30.06 in 0.5 mi NE 5.8 mph - N/A Fog Fog
9:30 AM 60.8 °F 60.8 °F 100% 30.06 in 0.6 mi NE 6.9 mph - N/A   Scattered Clouds
9:36 AM 60.8 °F 60.8 °F 100% 30.06 in 2.5 mi ENE 8.1 mph - N/A   Mostly Cloudy
10:00 AM 60.8 °F 60.8 °F 100% 30.09 in 2.5 mi ENE 10.4 mph - N/A   Mostly Cloudy
10:30 AM 62.6 °F 60.8 °F 94% 30.09 in 3.7 mi NE 10.4 mph - N/A   Mostly Cloudy
11:00 AM 64.4 °F 62.6 °F 94% 30.09 in 5.0 mi ENE 8.1 mph - N/A   Scattered Clouds
11:30 AM 66.2 °F 60.8 °F 83% 30.09 in 6.2 mi ENE 9.2 mph - N/A   Partly Cloudy
12:00 PM 68.0 °F 59.0 °F 73% 30.09 in 6.2 mi East 10.4 mph - N/A   Partly Cloudy
12:30 PM 69.8 °F 60.8 °F 73% 30.09 in 6.2 mi East 9.2 mph - N/A   Partly Cloudy
1:00 PM 71.6 °F 59.0 °F 64% 30.09 in 6.2 mi ENE 8.1 mph - N/A   Partly Cloudy
1:30 PM 71.6 °F 57.2 °F 60% 30.09 in 6.2 mi ENE 8.1 mph - N/A   Partly Cloudy
2:00 PM 73.4 °F 57.2 °F 57% 30.09 in 6.2 mi East 6.9 mph - N/A   Partly Cloudy
3:00 PM 75.2 °F 51.8 °F 44% 30.06 in 6.2 mi East 6.9 mph - N/A   Partly Cloudy
3:30 PM 77.0 °F 50.0 °F 39% 30.06 in 6.2 mi Variable 4.6 mph - N/A   Partly Cloudy
4:00 PM 77.0 °F 53.6 °F 44% 30.06 in 6.2 mi SSE 2.3 mph - N/A   Partly Cloudy
4:30 PM 77.0 °F 53.6 °F 44% 30.06 in 6.2 mi East 1.2 mph - N/A   Partly Cloudy
5:00 PM 77.0 °F 53.6 °F 44% 30.04 in 6.2 mi East 3.5 mph - N/A   Partly Cloudy
5:30 PM 78.8 °F 53.6 °F 42% 30.04 in 6.2 mi East 1.2 mph - N/A   Partly Cloudy
6:00 PM 77.0 °F 51.8 °F 41% 30.04 in - SSE 1.2 mph - N/A   Clear
6:30 PM 78.8 °F 51.8 °F 39% 30.04 in - Variable 1.2 mph - N/A   Clear
7:00 PM 77.0 °F 51.8 °F 41% 30.04 in - ESE 3.5 mph - N/A   Clear
7:30 PM 77.0 °F 51.8 °F 41% 30.04 in - Variable 1.2 mph - N/A   Clear
8:00 PM 75.2 °F 57.2 °F 53% 30.04 in - SSE 2.3 mph - N/A   Clear
8:30 PM 71.6 °F 57.2 °F 60% 30.04 in - SE 2.3 mph - N/A   Clear
9:00 PM 71.6 °F 59.0 °F 64% 30.04 in - SE 1.2 mph - N/A   Clear
9:30 PM 69.8 °F 59.0 °F 68% 30.06 in - Variable 2.3 mph - N/A   Clear
10:00 PM 68.0 °F 59.0 °F 73% 30.06 in - SE 1.2 mph - N/A   Clear
10:30 PM 68.0 °F 59.0 °F 73% 30.06 in - SSE 2.3 mph - N/A   Clear
11:00 PM 68.0 °F 60.8 °F 78% 30.06 in - SSE 1.2 mph - N/A   Clear
11:30 PM 68.0 °F 60.8 °F 78% 30.09 in - Calm Calm - N/A   Clear